When you browse on this site, cookies collect data to enhance your experience and personalize the content and advertising you see.
Visit our Privacy Policy to learn more. By continuing to use the site, you agree to this use of cookies and data.
  • In Schweiz
  • Länderverzeichnis
  • Für 7 Tage
  • Wassertemperatur
  • Wetterkarte
  • Widgets
  • user-avatar
    Anmelden

    Stündliche Wetter Volkovichi

    Heute, 19 Januar, Sonntag

    Zeit Temperatur Niederschläge Wind Luftdruck Luftfeuchtigkeit
    00:00 -2°C° 0 mm 2 m/S 748 mmHg 89%
    01:00 -2°C° 0 mm 2 m/S 748 mmHg 89%
    02:00 -2°C° 0 mm 2 m/S 749 mmHg 89%
    03:00 -2°C° 0 mm 2 m/S 749 mmHg 89%
    04:00 +1°C° 0 mm 1 m/S 749 mmHg 88%
    05:00 +1°C° 0 mm 1 m/S 749 mmHg 88%
    06:00 +1°C° 0 mm 1 m/S 749 mmHg 88%
    07:00 +1°C° 0 mm 1 m/S 750 mmHg 89%
    08:00 +1°C° 0 mm 1 m/S 750 mmHg 89%
    09:00 +1°C° 0 mm 1 m/S 750 mmHg 88%
    10:00 +2°C° 0 mm 1 m/S 751 mmHg 88%
    11:00 +2°C° 0 mm 1 m/S 751 mmHg 87%
    12:00 +2°C° 0 mm 1 m/S 752 mmHg 87%
    13:00 +3°C° 0 mm 1 m/S 752 mmHg 86%
    14:00 +3°C° 0 mm 1 m/S 752 mmHg 85%
    15:00 +3°C° 0 mm 1 m/S 753 mmHg 88%
    16:00 +2°C° 0 mm 1 m/S 753 mmHg 90%
    17:00 +1°C° 0 mm 1 m/S 754 mmHg 93%
    18:00 +1°C° 0 mm 1 m/S 754 mmHg 92%
    19:00 +1°C° 0 mm 1 m/S 755 mmHg 92%
    20:00 0°C° 0 mm 1 m/S 755 mmHg 91%
    21:00 0°C° 0 mm 1 m/S 755 mmHg 91%
    22:00 -2°C° 0 mm 2 m/S 756 mmHg 92%
    23:00 -2°C° 0 mm 2 m/S 756 mmHg 92%

    Morgen, 20 Januar, Montag

    Zeit Temperatur Niederschläge Wind Luftdruck Luftfeuchtigkeit
    00:00 -2°C° 0 mm 2 m/S 757 mmHg 93%
    01:00 -2°C° 0 mm 2 m/S 757 mmHg 94%
    02:00 -2°C° 0 mm 2 m/S 757 mmHg 95%
    03:00 -2°C° 0 mm 2 m/S 757 mmHg 95%
    04:00 -2°C° 0 mm 2 m/S 757 mmHg 95%
    05:00 -2°C° 0 mm 2 m/S 757 mmHg 94%
    06:00 -2°C° 0 mm 2 m/S 758 mmHg 95%
    07:00 -2°C° 0 mm 3 m/S 758 mmHg 96%
    08:00 -2°C° 0 mm 3 m/S 758 mmHg 96%
    09:00 -2°C° 0 mm 3 m/S 759 mmHg 95%
    10:00 -1°C° 0 mm 3 m/S 759 mmHg 95%
    11:00 -2°C° 0 mm 4 m/S 759 mmHg 94%
    12:00 -2°C° 0 mm 4 m/S 759 mmHg 92%
    13:00 -2°C° 0 mm 4 m/S 759 mmHg 91%
    14:00 -2°C° 0 mm 4 m/S 759 mmHg 89%
    15:00 -2°C° 0 mm 4 m/S 759 mmHg 90%
    16:00 -2°C° 0 mm 4 m/S 759 mmHg 91%
    17:00 -2°C° 0 mm 4 m/S 758 mmHg 92%
    18:00 -2°C° 0 mm 4 m/S 758 mmHg 92%
    19:00 -2°C° 0 mm 4 m/S 758 mmHg 91%
    20:00 -2°C° 0 mm 4 m/S 758 mmHg 91%
    21:00 -2°C° 0 mm 5 m/S 758 mmHg 89%
    22:00 -2°C° 0 mm 5 m/S 757 mmHg 87%
    23:00 -2°C° 0 mm 5 m/S 757 mmHg 85%

    übermorgen, 21 Januar, Dienstag

    Zeit Temperatur Niederschläge Wind Luftdruck Luftfeuchtigkeit
    00:00 -3°C° 0 mm 6 m/S 756 mmHg 83%
    01:00 -3°C° 0 mm 6 m/S 756 mmHg 81%
    02:00 -3°C° 0 mm 6 m/S 755 mmHg 79%
    03:00 -3°C° 0 mm 6 m/S 755 mmHg 80%
    04:00 -3°C° 0 mm 6 m/S 754 mmHg 81%
    05:00 -3°C° 0 mm 7 m/S 754 mmHg 82%
    06:00 -2°C° 0 mm 7 m/S 753 mmHg 84%
    07:00 -2°C° 0 mm 7 m/S 753 mmHg 85%
    08:00 -2°C° 0 mm 7 m/S 752 mmHg 87%
    09:00 -1°C° 0 mm 7 m/S 752 mmHg 87%
    10:00 -1°C° 0 mm 7 m/S 752 mmHg 88%
    11:00 0°C° 0 mm 7 m/S 751 mmHg 89%
    12:00 0°C° 0 mm 7 m/S 751 mmHg 87%
    13:00 0°C° 0 mm 8 m/S 751 mmHg 85%
    14:00 0°C° 0 mm 8 m/S 750 mmHg 84%
    15:00 0°C° 0 mm 8 m/S 750 mmHg 83%
    16:00 -1°C° 0 mm 8 m/S 749 mmHg 82%
    17:00 -1°C° 0 mm 8 m/S 748 mmHg 81%
    18:00 -1°C° 0 mm 7 m/S 748 mmHg 81%
    19:00 -1°C° 0 mm 7 m/S 748 mmHg 81%
    20:00 -1°C° 0 mm 7 m/S 748 mmHg 82%
    21:00 0°C° 0 mm 7 m/S 748 mmHg 84%
    22:00 0°C° 0 mm 7 m/S 747 mmHg 86%
    23:00 0°C° 0 mm 7 m/S 747 mmHg 89%

    22 Januar, Mittwoch

    Zeit Temperatur Niederschläge Wind Luftdruck Luftfeuchtigkeit
    00:00 0°C° 0 mm 7 m/S 747 mmHg 90%
    01:00 0°C° 0 mm 7 m/S 746 mmHg 91%
    02:00 0°C° 0 mm 7 m/S 746 mmHg 91%
    03:00 0°C° 0 mm 7 m/S 746 mmHg 92%
    04:00 0°C° 0 mm 7 m/S 745 mmHg 92%
    05:00 +2°C° 0 mm 7 m/S 745 mmHg 93%
    06:00 +2°C° 0.1 mm 7 m/S 744 mmHg 91%
    07:00 +2°C° 0.1 mm 7 m/S 743 mmHg 89%
    08:00 +2°C° 0.1 mm 7 m/S 742 mmHg 88%
    09:00 +2°C° 0.2 mm 7 m/S 742 mmHg 89%
    10:00 +2°C° 0.2 mm 7 m/S 742 mmHg 89%
    11:00 +2°C° 0.2 mm 7 m/S 741 mmHg 90%
    12:00 0°C° 0.5 mm 7 m/S 741 mmHg 91%
    13:00 -1°C° 0.5 mm 6 m/S 741 mmHg 92%
    14:00 -1°C° 0.5 mm 5 m/S 741 mmHg 93%
    15:00 -1°C° 0.1 mm 5 m/S 741 mmHg 92%
    16:00 -1°C° 0.1 mm 5 m/S 741 mmHg 90%
    17:00 -1°C° 0.1 mm 5 m/S 741 mmHg 88%
    18:00 -2°C° 0.1 mm 6 m/S 742 mmHg 83%
    19:00 -2°C° 0.1 mm 6 m/S 742 mmHg 78%
    20:00 -3°C° 0.1 mm 6 m/S 742 mmHg 73%
    21:00 -3°C° 0 mm 7 m/S 742 mmHg 74%
    22:00 -3°C° 0 mm 7 m/S 743 mmHg 76%
    23:00 -3°C° 0 mm 7 m/S 743 mmHg 77%

    23 Januar, Donnerstag

    Zeit Temperatur Niederschläge Wind Luftdruck Luftfeuchtigkeit
    00:00 -3°C° 0.1 mm 7 m/S 744 mmHg 79%
    01:00 -3°C° 0.1 mm 7 m/S 744 mmHg 81%
    02:00 -3°C° 0.1 mm 7 m/S 745 mmHg 83%
    03:00 -3°C° 0 mm 7 m/S 745 mmHg 85%
    04:00 -3°C° 0 mm 7 m/S 745 mmHg 86%
    05:00 -4°C° 0 mm 7 m/S 746 mmHg 87%
    06:00 -4°C° 0.1 mm 6 m/S 747 mmHg 85%
    07:00 -4°C° 0.1 mm 6 m/S 747 mmHg 83%
    08:00 -4°C° 0.1 mm 5 m/S 748 mmHg 82%
    09:00 -4°C° 0 mm 6 m/S 749 mmHg 77%
    10:00 -3°C° 0 mm 6 m/S 750 mmHg 72%
    11:00 -3°C° 0 mm 6 m/S 750 mmHg 67%
    12:00 -3°C° 0 mm 6 m/S 751 mmHg 71%
    13:00 -3°C° 0 mm 6 m/S 751 mmHg 74%
    14:00 -2°C° 0 mm 6 m/S 751 mmHg 77%
    15:00 -2°C° 0 mm 5 m/S 751 mmHg 77%
    16:00 -2°C° 0 mm 5 m/S 751 mmHg 78%
    17:00 -2°C° 0 mm 4 m/S 751 mmHg 78%
    18:00 -3°C° 0 mm 4 m/S 751 mmHg 81%
    19:00 -3°C° 0 mm 4 m/S 751 mmHg 83%
    20:00 -3°C° 0 mm 4 m/S 752 mmHg 85%
    21:00 -2°C° 0 mm 3 m/S 752 mmHg 86%
    22:00 -4°C° 0 mm 3 m/S 752 mmHg 87%
    23:00 -4°C° 0 mm 3 m/S 752 mmHg 88%

    24 Januar, Freitag

    Zeit Temperatur Niederschläge Wind Luftdruck Luftfeuchtigkeit
    00:00 -4°C° 0 mm 4 m/S 752 mmHg 87%
    01:00 -4°C° 0 mm 4 m/S 751 mmHg 87%
    02:00 -4°C° 0 mm 4 m/S 751 mmHg 87%
    03:00 -4°C° 0 mm 4 m/S 751 mmHg 83%
    04:00 -5°C° 0 mm 5 m/S 750 mmHg 78%
    05:00 -5°C° 0 mm 5 m/S 750 mmHg 74%
    06:00 -5°C° 0 mm 5 m/S 749 mmHg 72%
    07:00 -5°C° 0 mm 5 m/S 749 mmHg 69%
    08:00 -5°C° 0 mm 6 m/S 749 mmHg 67%
    09:00 -4°C° 0 mm 6 m/S 749 mmHg 65%
    10:00 -3°C° 0 mm 6 m/S 749 mmHg 63%
    11:00 -3°C° 0 mm 6 m/S 749 mmHg 61%
    12:00 -3°C° 0 mm 6 m/S 748 mmHg 61%
    13:00 -2°C° 0 mm 6 m/S 748 mmHg 61%
    14:00 -2°C° 0 mm 6 m/S 748 mmHg 61%
    15:00 -1°C° 0 mm 5 m/S 748 mmHg 63%
    16:00 -2°C° 0 mm 4 m/S 748 mmHg 65%
    17:00 -1°C° 0 mm 3 m/S 748 mmHg 67%
    18:00 -1°C° 0 mm 3 m/S 748 mmHg 67%
    19:00 -3°C° 0 mm 4 m/S 747 mmHg 68%
    20:00 -3°C° 0 mm 4 m/S 747 mmHg 69%
    21:00 -2°C° 0 mm 3 m/S 747 mmHg 70%
    22:00 -2°C° 0 mm 3 m/S 747 mmHg 71%
    23:00 -4°C° 0 mm 3 m/S 747 mmHg 72%
    Mehr zeigen